Weather History for KTKC - April, 2014

Change the Weather History Date:

Thursday, April 3, 2014

  Actual Average (KMML) Record (KMML)
Temperature  
Mean Temperature 31 °F -  
Max Temperature 34 °F 49 °F 81 °F (1963)
Min Temperature 28 °F 29 °F 5 °F (1975)
Degree Days  
Heating Degree Days 34    
Moisture  
Dew Point 32 °F    
Average Humidity 97    
Maximum Humidity 99    
Minimum Humidity 94    
Precipitation  
Precipitation 0.02 in - - ()
Sea Level Pressure  
Sea Level Pressure 29.87 in    
Wind  
Wind Speed 10 mph (NE)    
Max Wind Speed 15 mph    
Max Gust Speed 16 mph    
Visibility 2 miles    
Events Fog , Rain , Snow    
Averages and records for this station are not official NWS values.
T = Trace of Precipitation, MM = Missing Value Source: NWS Daily Summary

Daily Weather History Graph

Daily Weather History Graph

Search for Another Location

Airport or City:

Trip Planner

Search our weather history database for the weather conditions in past years. The results will help you decide how hot, cold, wet, or windy it might be!

Date:

Astronomy

Apr. 03, 2014 Rise Set
Actual Time 6:59 AM CDT 7:52 PM CDT
Civil Twilight 6:30 AM CDT 8:21 PM CDT
Nautical Twilight 5:55 AM CDT 8:56 PM CDT
Astronomical Twilight 5:19 AM CDT 9:33 PM CDT
Moon 9:22 AM CDT (4/3) No Moon Set
Length of Visible Light 13h 51m
Length of Day
12h 52m
Waxing Crescent, 17% of the Moon is Illuminated
Apr 3
Waxing Crescent
Apr 7
First Quarter
Apr 15
Full
Apr 22
Last Quarter
Apr 29
New

Hourly Weather History & Observations

Time (CDT) Temp. Windchill Dew Point Humidity Pressure Visibility Wind Dir Wind Speed Gust Speed Precip Events Conditions
12:12 AM 32.5 °F 22.7 °F 31.1 °F 94% 30.01 in 3.0 mi ENE 13.8 mph - N/A Snow Light Snow
12:33 AM 32.4 °F 22.5 °F 31.1 °F 95% 29.99 in 3.0 mi ENE 13.8 mph - N/A Snow Light Snow
12:53 AM 32.0 °F 22.1 °F 30.9 °F 96% 29.96 in 3.0 mi ENE 13.8 mph - N/A Snow Light Snow
1:12 AM 32.0 °F 23.6 °F 30.9 °F 96% 29.97 in 5.0 mi ENE 10.4 mph - N/A   Overcast
1:32 AM 32.2 °F 25.0 °F 31.1 °F 96% 29.97 in 5.0 mi ENE 8.1 mph - N/A   Overcast
1:52 AM 32.2 °F 24.4 °F 31.5 °F 97% 29.95 in 5.0 mi ENE 9.2 mph - N/A   Overcast
2:12 AM 32.4 °F 23.5 °F 31.8 °F 98% 29.94 in 3.0 mi ENE 11.5 mph 16.1 mph N/A   Overcast
2:32 AM 32.9 °F 25.3 °F 32.0 °F 96% 29.94 in 3.0 mi ENE 9.2 mph - N/A   Overcast
2:53 AM 32.9 °F 25.9 °F 32.0 °F 96% 29.94 in 2.5 mi ENE 8.1 mph - N/A   Overcast
3:13 AM 32.9 °F 24.7 °F 32.0 °F 96% 29.94 in 2.0 mi ENE 10.4 mph - N/A   Overcast
3:32 AM 32.7 °F 26.4 °F 32.0 °F 97% 29.94 in 2.5 mi ENE 6.9 mph - N/A   Overcast
3:53 AM 32.5 °F 25.5 °F 32.0 °F 98% 29.93 in 3.0 mi NE 8.1 mph - N/A   Overcast
4:12 AM 32.5 °F 24.8 °F 32.0 °F 98% 29.93 in 3.0 mi ENE 9.2 mph - N/A   Overcast
4:33 AM 32.5 °F 25.5 °F 32.0 °F 98% 29.92 in 2.5 mi ENE 8.1 mph - N/A   Overcast
4:52 AM 32.5 °F 25.5 °F 32.0 °F 98% 29.92 in 2.5 mi ENE 8.1 mph - N/A   Overcast
5:13 AM 32.5 °F 26.2 °F 32.0 °F 98% 29.91 in 2.5 mi ENE 6.9 mph - N/A   Overcast
5:32 AM 32.5 °F 25.5 °F 32.0 °F 98% 29.89 in 2.5 mi ENE 8.1 mph - N/A   Overcast
5:52 AM 32.5 °F 25.5 °F 32.0 °F 98% 29.89 in 1.8 mi NE 8.1 mph - N/A   Overcast
6:12 AM 32.9 °F 27.5 °F 32.0 °F 96% 29.91 in 1.8 mi NE 5.8 mph - N/A   Overcast
6:32 AM 32.9 °F 29.8 °F 32.0 °F 96% 29.92 in 1.5 mi ENE 3.5 mph - N/A   Overcast
6:52 AM 32.9 °F 28.5 °F 32.0 °F 96% 29.92 in 1.5 mi ENE 4.6 mph - N/A   Overcast
7:12 AM 32.9 °F 27.5 °F 32.0 °F 96% 29.91 in 1.0 mi NE 5.8 mph - N/A   Overcast
7:32 AM 32.9 °F 26.7 °F 32.0 °F 96% 29.90 in 0.2 mi NE 6.9 mph - N/A   Overcast
7:52 AM 32.9 °F 26.7 °F 32.2 °F 97% 29.89 in 0.5 mi ENE 6.9 mph - N/A   Overcast
8:12 AM 33.1 °F 26.1 °F 32.2 °F 96% 29.88 in 0.5 mi ENE 8.1 mph - N/A Fog Fog
8:33 AM 33.1 °F 26.1 °F 32.4 °F 97% 29.88 in 0.5 mi ENE 8.1 mph - N/A Fog Fog
8:53 AM 33.1 °F 26.9 °F 32.4 °F 97% 29.88 in 0.8 mi ENE 6.9 mph - N/A   Overcast
9:13 AM 33.3 °F 26.4 °F 32.5 °F 97% 29.88 in 1.0 mi ENE 8.1 mph - 0.01 in   Overcast
9:32 AM 33.3 °F 25.7 °F 32.5 °F 97% 29.88 in 1.2 mi East 9.2 mph - 0.01 in   Overcast
9:52 AM 33.1 °F 26.1 °F 32.4 °F 97% 29.87 in 1.0 mi East 8.1 mph - 0.01 in   Overcast
10:13 AM 33.3 °F 27.1 °F 32.5 °F 97% 29.88 in 1.2 mi East 6.9 mph - N/A   Overcast
10:33 AM 33.3 °F 27.9 °F 32.7 °F 98% 29.88 in 1.2 mi East 5.8 mph - N/A   Overcast
10:52 AM 33.4 °F 27.3 °F 32.9 °F 98% 29.88 in 1.2 mi ENE 6.9 mph - N/A   Overcast
11:12 AM 33.8 °F 27.7 °F 32.9 °F 96% 29.88 in 1.0 mi ENE 6.9 mph - N/A   Overcast
11:32 AM 33.8 °F 27.7 °F 33.1 °F 97% 29.88 in 1.2 mi ENE 6.9 mph - N/A   Overcast
11:53 AM 34.2 °F 27.5 °F 33.4 °F 97% 29.87 in 1.2 mi ENE 8.1 mph - N/A   Overcast
12:13 PM 34.3 °F 27.7 °F 33.4 °F 97% 29.86 in 1.5 mi ENE 8.1 mph - 0.01 in   Overcast
12:32 PM 34.7 °F 28.1 °F 33.8 °F 97% 29.87 in 2.0 mi ENE 8.1 mph - 0.01 in   Overcast
12:53 PM 34.3 °F 27.0 °F 33.4 °F 97% 29.87 in 1.8 mi ENE 9.2 mph - 0.01 in   Overcast
1:13 PM 34.2 °F 26.8 °F 33.3 °F 97% 29.86 in 2.0 mi ENE 9.2 mph - N/A Rain Rain
1:32 PM 34.5 °F 26.2 °F 33.6 °F 97% 29.84 in 2.5 mi NE 11.5 mph - N/A Rain Light Rain
1:53 PM 34.7 °F 27.5 °F 33.8 °F 97% 29.84 in 4.0 mi NE 9.2 mph - N/A   Light Drizzle
2:13 PM 34.2 °F 29.0 °F 33.3 °F 97% 29.84 in 4.0 mi NE 5.8 mph - N/A   Light Drizzle
2:32 PM 34.2 °F 26.8 °F 33.1 °F 96% 29.84 in 3.0 mi NE 9.2 mph - N/A   Light Drizzle
2:52 PM 34.2 °F 26.2 °F 33.1 °F 96% 29.83 in 3.0 mi NE 10.4 mph - N/A Rain Light Rain
3:13 PM 33.8 °F 26.4 °F 32.9 °F 96% 29.82 in 2.0 mi NE 9.2 mph - N/A Rain Light Rain
3:32 PM 33.8 °F 25.8 °F 32.5 °F 95% 29.81 in 3.0 mi NE 10.4 mph - N/A Snow Light Snow
3:52 PM 33.4 °F 27.3 °F 32.5 °F 96% 29.81 in 2.0 mi NNE 6.9 mph - N/A Snow Light Snow
4:12 PM 33.1 °F 24.9 °F 32.2 °F 96% 29.81 in 2.0 mi NNE 10.4 mph - N/A Snow Light Snow
4:32 PM 32.9 °F 25.3 °F 32.0 °F 96% 29.81 in 1.0 mi NE 9.2 mph - N/A Snow Light Snow
4:52 PM 32.9 °F 26.7 °F 32.0 °F 96% 29.82 in 0.8 mi NNE 6.9 mph - N/A Snow Light Snow
5:12 PM 32.9 °F 25.3 °F 32.0 °F 96% 29.82 in 0.5 mi NNE 9.2 mph - N/A Snow Snow
5:32 PM 32.9 °F 25.9 °F 32.0 °F 96% 29.82 in 0.8 mi NNE 8.1 mph - N/A Snow Light Snow
5:53 PM 32.9 °F 25.9 °F 32.0 °F 96% 29.83 in 0.5 mi NNE 8.1 mph - N/A Snow Snow
6:12 PM 32.5 °F 24.2 °F 32.0 °F 98% 29.82 in 0.5 mi NNE 10.4 mph - N/A Snow Snow
6:33 PM 32.4 °F 24.0 °F 32.0 °F 99% 29.82 in 0.5 mi NNE 10.4 mph - N/A Snow Snow
6:52 PM 32.2 °F 22.3 °F 32.0 °F 99% 29.82 in 1.0 mi NNE 13.8 mph - N/A Snow Light Snow
7:12 PM 32.0 °F 22.5 °F 31.8 °F 99% 29.82 in 1.0 mi NNE 12.7 mph - N/A Snow Light Snow
7:32 PM 32.0 °F 23.6 °F 31.1 °F 96% 29.83 in 1.2 mi NNE 10.4 mph - N/A Snow Light Snow
7:53 PM 32.0 °F 21.6 °F 31.1 °F 96% 29.83 in 1.5 mi NNE 15.0 mph - N/A Snow Light Snow
8:12 PM 31.6 °F 21.6 °F 30.7 °F 96% 29.82 in 1.2 mi NNE 13.8 mph - N/A Snow Snow
8:32 PM 31.5 °F 20.9 °F 30.6 °F 96% 29.83 in 1.0 mi North 15.0 mph - N/A Snow Snow
8:53 PM 30.7 °F 20.9 °F 29.8 °F 96% 29.83 in 1.8 mi North 12.7 mph - N/A Snow Light Snow
9:13 PM 30.6 °F 19.8 °F 29.7 °F 96% 29.82 in 1.8 mi North 15.0 mph - N/A Snow Light Snow
9:33 PM 30.4 °F 20.5 °F 29.5 °F 96% 29.83 in 1.8 mi NNE 12.7 mph - N/A Snow Light Snow
10:52 PM 29.3 °F 18.6 °F 28.4 °F 96% 29.83 in 1.2 mi North 13.8 mph - N/A Snow Light Snow
11:12 PM 28.9 °F 18.2 °F 28.0 °F 96% 29.82 in 1.8 mi North 13.8 mph - N/A Snow Light Snow
11:32 PM 28.4 °F 17.0 °F 27.5 °F 96% 29.82 in 2.0 mi North 15.0 mph - N/A Snow Light Snow
11:53 PM 28.4 °F 18.0 °F 27.3 °F 96% 29.82 in 2.5 mi North 12.7 mph - N/A Snow Light Snow